Location: Colebrook
(42.0017°N, 73.0973°W)
Time: 21:25:44
(UTC-04:00)

N. Korean satellite - Pass Details

Date: 28 September 2021
Orbit: 450 x 495 km, 97.3° (Epoch: 22 October)

Event Time Altitude Azimuth Distance (km) Brightness Sun altitude
Rises 05:58:08 0° 15° (NNE) 2,539 10.5 -9.8°
Reaches altitude 10° 06:00:13 10° 19° (NNE) 1,663 9.6 -9.4°
Maximum altitude 06:03:45 60° 100° (E) 559 7.2 -8.8°
Drops below altitude 10° 06:07:18 10° 182° (S) 1,671 9.2 -8.1°
Sets 06:09:24 0° 185° (S) 2,553 10.1 -7.7°
